MDT,Max TemperatureF,Mean TemperatureF,Min TemperatureF,Max Dew PointF,MeanDew PointF,Min DewpointF,Max Humidity, Mean Humidity, Min Humidity, Max Sea Level PressureIn, Mean Sea Level PressureIn, Min Sea Level PressureIn, Max VisibilityMiles, Mean VisibilityMiles, Min VisibilityMiles, Max Wind SpeedMPH, Mean Wind SpeedMPH, Max Gust SpeedMPH,PrecipitationIn, CloudCover, Events, WindDirDegrees
2013-5-1,28,20,11,27,20,11,92,80,68,30.66,30.25,29.97,10,9,6,23,11,28,0.05,8,Snow,94
2013-5-2,42,24,5,21,12,4,92,61,30,30.82,30.66,30.48,10,10,10,24,9,31,0.00,0,,200
2013-5-3,56,38,20,28,19,14,84,52,19,30.46,30.17,29.99,10,10,10,22,9,26,0.00,1,,129
2013-5-4,50,42,34,29,25,20,70,51,31,30.08,30.02,29.95,10,10,10,23,13,30,0.00,4,,115
2013-5-5,53,42,30,31,22,14,59,46,33,30.09,30.04,29.97,10,10,10,33,19,39,T,3,,147
2013-5-6,60,44,28,34,29,25,85,58,30,30.06,29.91,29.82,10,10,10,20,7,23,T,2,Rain-Thunderstorm,152
2013-5-7,57,45,33,42,36,31,100,70,40,30.07,29.89,29.81,10,9,2,23,7,33,0.10,7,Rain-Thunderstorm,235
2013-5-8,56,44,32,43,36,32,100,73,46,30.11,29.97,29.88,10,10,7,30,8,39,0.06,5,Rain-Thunderstorm,109
2013-5-9,56,45,34,38,36,32,100,73,46,30.27,30.08,30.00,10,10,4,23,7,29,0.23,7,Rain,38
2013-5-10,60,46,31,40,30,25,89,57,25,30.30,30.17,30.10,10,10,1,26,8,36,0.00,3,,39
2013-5-11,66,49,32,37,31,24,96,60,23,30.31,30.21,30.12,10,10,7,38,8,54,0.01,3,Rain,288
2013-5-12,71,53,34,36,31,27,89,55,20,30.15,30.07,29.97,10,10,10,23,9,31,0.00,2,,298
2013-5-13,78,59,40,38,34,29,76,47,18,30.05,29.98,29.87,10,10,10,18,8,24,0.00,1,,218
2013-5-14,78,62,45,39,33,27,66,42,17,29.87,29.81,29.75,10,10,10,23,10,31,0.00,1,,220
2013-5-15,70,57,43,45,39,34,80,54,28,30.14,29.83,29.75,10,10,8,31,9,39,0.02,3,Rain-Thunderstorm,163
2013-5-16,73,59,45,44,37,25,93,55,17,29.96,29.73,29.64,10,10,10,36,11,45,0.03,4,Rain,255
2013-5-17,75,58,40,41,28,17,85,49,12,29.74,29.68,29.65,10,10,10,26,11,35,T,1,,205
2013-5-18,60,50,40,39,34,25,85,59,33,29.99,29.78,29.66,10,10,8,31,9,41,0.02,2,Rain-Thunderstorm,239
2013-5-19,56,45,33,40,34,30,93,66,38,29.95,29.81,29.72,10,10,10,33,14,41,0.12,5,Rain,313
2013-5-20,49,43,37,41,37,33,93,82,71,30.03,29.92,29.76,10,8,5,37,19,44,0.08,8,Rain,324
2013-5-21,58,45,32,34,29,26,89,60,30,30.09,29.92,29.82,10,10,10,29,14,37,0.00,4,,321
2013-5-22,69,51,33,39,33,26,82,53,24,29.84,29.78,29.72,10,10,10,30,13,37,T,2,,142
2013-5-23,60,51,41,45,42,39,96,76,55,30.08,29.90,29.73,10,10,3,46,35,55,0.00,4,,147
2013-5-24,75,59,42,44,34,19,100,57,13,29.97,29.83,29.73,10,10,7,33,11,41,0.00,2,,158
2013-5-25,76,55,34,47,26,13,86,48,10,29.87,29.79,29.75,10,10,10,28,11,36,0.00,0,,208
2013-5-26,77,57,36,37,26,15,64,37,10,30.00,29.77,29.70,10,10,10,24,11,31,0.00,0,,190
2013-5-27,70,54,38,31,24,18,64,39,14,29.95,29.71,29.60,10,10,10,36,13,47,T,1,Thunderstorm,232
2013-5-28,69,50,31,37,30,25,75,47,19,29.77,29.62,29.49,10,10,10,24,10,29,T,3,Rain-Thunderstorm,179
2013-5-29,56,47,38,41,37,33,89,70,50,29.79,29.60,29.49,10,9,2,33,12,45,0.16,7,Rain,275
2013-5-30,59,48,37,33,25,17,82,53,23,29.74,29.63,29.57,10,10,10,43,26,54,0.00,1,,266
2013-5-31,58,46,34,32,24,19,64,44,23,30.05,29.80,29.69,10,10,10,41,24,53,0.00,3,,287